Theta_e
334 333 334 336 337 338 338 337 334 333 334 335 335 334 334 332 330 329 328 327 327 325 324 323 323 322 322 322 322 322 321 323 328 328 328 330 331 331 328 326 325 322 322 323 327 332 333 331 331 330 329 329 328 327 326 326 326 327 326 326 324 322 323 323 320 314 315 318 319 322 324 323 323 322 321 322 323 323 323 325 328 332 332 332 332
335 334 333 334 334 336 337 338 337 334 334 333 334 334 335 335 334 332 330 329 329 328 327 325 324 322 322 322 321 321 321 323 325 327 328 329 329 332 330 326 325 323 322 323 326 332 332 331 332 331 330 329 329 328 327 326 325 326 326 325 325 324 323 324 319 312 316 320 320 322 323 323 322 319 318 319 321 323 325 328 331 332 332 332 332
336 335 334 334 333 334 335 337 338 337 336 334 334 335 335 336 336 334 332 331 330 329 329 329 328 326 324 324 323 322 321 323 326 329 330 330 329 330 331 329 327 325 322 322 324 330 332 332 333 332 331 330 329 329 328 327 326 326 326 324 323 323 323 324 320 314 319 323 322 323 323 323 323 321 321 321 323 326 328 330 332 332 332 331 331
337 336 335 335 334 334 335 336 337 338 338 337 335 335 335 336 336 335 333 331 332 331 330 331 331 330 328 327 328 327 326 328 330 331 330 330 329 330 331 331 330 327 324 321 321 327 332 333 333 333 332 331 330 329 329 329 328 327 327 325 323 321 321 321 318 317 323 326 326 327 326 326 326 324 325 324 326 328 329 331 332 332 332 331 331
338 337 337 336 335 335 335 336 336 336 337 337 337 337 336 336 336 336 335 332 332 332 332 332 332 332 331 330 330 330 329 331 331 330 330 330 330 330 331 332 332 330 326 323 320 323 330 332 332 333 333 331 330 330 329 329 329 328 327 327 326 325 323 318 315 320 326 327 327 328 329 329 328 327 326 326 328 330 332 333 332 332 332 332 331
338 338 337 336 336 335 335 335 336 336 336 337 337 337 337 337 336 337 337 334 333 334 334 334 333 332 332 331 331 331 331 331 330 329 329 329 330 330 332 332 332 332 328 326 322 320 324 328 329 333 334 332 331 330 329 329 329 329 328 328 328 328 325 316 314 323 327 327 328 329 329 330 329 329 329 330 332 332 333 332 332 332 332 332 331
339 339 338 337 337 336 335 335 336 336 337 337 337 337 337 337 337 337 337 336 334 334 335 335 334 333 332 331 331 331 331 330 330 330 329 329 330 330 332 333 333 333 330 328 326 322 321 322 324 329 332 332 333 332 331 330 329 328 328 328 329 328 325 319 317 323 327 327 329 329 330 330 330 331 332 333 333 333 333 332 333 332 332 332 331
339 339 338 338 337 337 336 336 336 336 337 337 337 337 337 337 337 338 337 336 336 335 335 335 335 333 331 331 330 330 330 330 329 330 330 329 330 332 332 333 333 333 332 330 328 325 323 322 322 324 328 330 333 332 332 332 331 330 328 328 329 328 327 325 321 322 326 327 328 330 331 331 331 332 333 333 333 333 333 333 333 332 332 332 332
339 339 339 338 338 337 337 336 337 336 337 338 337 337 337 337 337 337 337 336 336 335 335 335 334 332 331 331 330 329 329 329 330 330 330 329 330 332 333 333 334 333 333 331 330 329 326 325 324 323 325 328 330 331 332 332 332 331 330 329 329 329 329 329 324 322 324 326 328 331 331 332 333 333 333 334 334 333 333 333 332 332 332 332 332
340 339 339 338 338 338 337 337 337 337 337 337 336 336 336 336 337 337 336 336 336 335 334 333 332 331 330 331 330 329 329 329 329 331 330 330 331 333 333 334 334 334 334 334 333 331 329 328 327 325 324 324 326 328 330 331 332 332 331 329 329 330 329 330 327 322 322 326 329 331 332 332 333 334 334 334 333 334 334 333 332 332 332 332 332
340 340 339 338 338 338 338 338 337 337 337 337 336 336 335 336 336 336 335 335 335 335 335 334 333 331 331 332 330 329 329 329 331 332 331 331 332 333 334 334 334 334 335 334 334 333 332 331 331 328 327 325 324 325 326 329 331 332 332 330 330 331 329 330 328 322 323 328 331 332 332 333 333 334 334 334 334 333 333 332 332 332 332 332 332
340 339 339 339 339 338 338 338 337 336 336 337 336 336 335 334 335 335 334 334 334 335 336 336 334 332 333 333 332 330 330 330 332 332 331 332 333 334 334 334 334 335 336 335 335 335 334 334 334 333 332 330 326 324 324 325 328 330 332 330 330 331 330 330 328 327 329 332 332 333 333 334 334 334 334 333 334 332 332 331 331 331 332 332 331
340 340 338 339 340 339 338 337 337 336 336 336 336 336 335 334 334 335 335 335 335 334 335 334 333 333 334 335 334 333 333 333 333 332 333 333 333 334 334 334 335 335 336 335 335 336 336 336 335 336 335 334 332 329 326 324 325 327 330 330 328 328 329 330 331 332 333 333 333 333 333 334 334 334 334 333 333 331 330 330 330 331 331 332 331
339 339 339 339 339 339 338 337 336 336 336 336 335 335 335 335 335 335 336 336 335 334 334 333 332 332 333 336 337 336 335 335 334 333 333 334 334 334 334 335 335 335 336 336 336 336 336 336 336 336 336 336 335 334 330 327 325 326 328 329 327 327 329 332 333 334 334 333 333 333 333 334 334 334 333 332 331 329 328 327 329 331 331 332 331
339 338 339 339 339 339 338 337 337 336 337 336 336 335 335 337 336 336 336 336 335 334 334 333 332 331 332 336 339 339 339 336 335 335 334 334 335 335 335 335 336 336 336 336 336 336 336 336 336 335 336 336 336 336 334 331 329 328 328 329 328 327 328 331 333 333 334 333 334 333 334 334 334 333 333 332 328 325 323 326 329 330 331 331 330
338 337 338 338 338 338 338 338 337 337 336 336 336 335 336 337 336 337 336 335 335 333 334 333 332 331 331 334 334 336 341 338 335 336 336 335 335 335 335 335 336 336 336 336 337 336 336 336 335 335 336 336 336 336 336 335 333 330 328 329 329 328 327 329 330 332 333 333 334 334 334 334 334 333 331 327 323 319 320 325 329 330 331 331 330
338 337 337 337 337 338 337 338 338 337 336 335 336 336 336 337 336 337 336 335 335 333 333 333 332 331 330 334 334 336 342 336 333 337 336 336 337 336 336 336 336 336 336 337 336 336 336 336 335 335 335 336 336 336 336 336 335 332 331 329 330 330 329 328 328 330 331 331 333 334 334 334 332 329 324 319 318 318 322 327 330 330 331 330 329
337 336 336 336 337 337 337 337 337 336 335 335 336 335 336 336 336 336 335 336 335 334 334 332 333 332 330 332 335 337 340 335 335 340 337 335 337 337 337 336 336 337 336 337 336 336 336 336 336 335 335 335 335 335 336 337 336 334 333 332 332 332 331 329 329 329 329 329 332 334 334 331 327 322 318 318 320 320 324 328 329 330 331 330 328
335 335 336 336 336 336 337 337 336 336 335 334 335 335 336 336 337 336 335 335 335 334 334 332 332 333 331 332 332 332 334 334 337 340 339 337 336 336 337 338 338 337 337 337 336 336 336 337 337 335 335 334 334 335 336 337 337 335 334 334 335 334 332 331 330 330 330 331 333 335 332 326 319 317 319 322 323 322 325 328 329 330 331 330 328
332 333 334 335 335 336 336 336 336 335 335 334 334 334 335 336 336 336 336 334 335 334 334 333 332 332 332 333 334 333 332 334 334 335 339 341 339 338 336 336 337 338 337 338 336 336 336 336 337 336 335 334 334 335 337 337 336 336 335 335 336 335 333 332 332 332 332 332 334 334 328 319 316 318 322 325 325 323 324 326 329 330 330 329 328
332 332 332 333 334 335 335 336 336 336 335 334 334 334 334 335 335 336 335 334 334 334 334 333 333 333 332 332 334 334 333 334 332 331 335 336 340 344 339 336 338 337 337 338 336 336 336 336 337 336 335 334 334 335 337 337 336 336 336 335 335 335 334 334 334 333 333 334 335 330 320 315 316 318 322 325 326 325 323 325 328 329 329 329 327
331 332 332 333 333 334 335 335 336 336 335 335 334 334 334 334 334 334 335 335 334 334 334 334 334 333 332 331 332 333 333 333 332 331 332 332 335 340 336 335 339 336 335 337 336 336 336 336 336 335 335 335 334 335 336 337 337 336 335 335 335 335 335 335 334 334 334 334 329 321 314 316 321 321 322 324 327 326 323 324 328 328 328 328 327
328 331 332 333 333 333 333 334 335 335 335 335 334 334 334 334 334 334 334 335 334 334 333 334 334 333 332 331 331 332 333 333 333 332 333 333 335 338 333 332 336 335 334 337 336 336 337 336 336 336 335 335 335 335 335 335 336 335 335 335 335 335 335 334 333 334 333 326 319 315 313 315 321 322 321 323 327 328 324 324 328 328 328 328 327
325 327 328 330 333 334 334 334 334 335 335 335 335 335 334 334 335 334 334 334 334 334 334 334 334 333 333 332 331 332 332 333 333 332 333 333 334 337 333 332 335 334 333 335 336 336 337 336 336 335 335 335 335 335 335 335 335 335 335 335 335 335 334 333 334 332 325 317 313 313 311 313 318 321 320 322 324 325 324 324 327 328 328 328 327
321 323 325 325 326 329 333 334 335 335 335 335 335 335 335 335 335 334 334 334 334 334 334 335 334 334 334 334 333 332 332 332 332 332 333 331 332 334 332 332 335 334 332 334 335 335 336 336 336 335 335 335 335 335 335 335 335 334 334 336 335 334 334 334 333 326 317 313 312 311 310 312 319 322 324 324 322 321 324 325 326 328 328 328 327
312 316 319 321 322 323 326 330 333 334 335 335 335 335 335 335 335 335 335 334 334 334 334 335 335 334 334 334 333 333 333 333 333 332 333 332 332 333 332 331 333 333 332 333 334 335 336 335 335 335 335 335 334 334 335 335 335 335 335 335 334 334 334 331 325 317 313 312 311 310 310 312 318 323 326 326 323 322 326 327 326 328 329 328 327
304 306 308 313 317 319 321 325 328 332 334 335 335 336 336 336 335 335 335 335 334 334 334 335 335 334 334 334 334 334 334 333 333 333 333 333 333 332 332 333 334 333 333 333 333 334 335 335 335 335 335 335 335 335 335 335 335 335 334 334 334 334 332 324 316 313 312 311 310 310 310 311 318 324 326 326 325 324 326 327 326 328 329 328 327
302 302 302 305 309 312 317 322 325 327 330 334 335 336 336 336 336 335 335 335 334 335 334 335 335 334 334 335 334 334 334 334 334 334 333 333 333 333 332 333 335 335 334 334 334 333 334 334 334 335 335 335 336 335 335 335 335 335 333 333 334 331 324 317 314 313 311 311 310 311 310 311 316 325 327 326 325 325 326 327 327 328 329 328 326
301 302 302 303 304 306 311 319 324 326 327 330 333 335 336 336 336 335 335 335 335 335 335 335 335 335 334 334 334 334 334 334 334 334 334 333 333 333 333 333 334 335 335 334 333 333 333 333 333 334 334 335 336 336 335 334 335 335 333 333 332 324 317 315 313 312 311 311 311 311 312 310 313 321 327 328 325 325 327 328 328 329 329 328 326
301 302 302 302 303 305 307 313 321 325 326 327 329 333 336 336 335 335 335 335 335 335 335 336 335 335 334 334 334 334 334 334 334 333 333 333 333 333 333 333 333 334 334 335 334 332 332 334 333 334 335 334 335 335 334 334 335 334 334 333 327 318 315 314 312 312 311 311 312 312 313 312 311 314 322 327 328 327 328 329 329 329 329 328 326
300 301 302 302 302 304 305 309 317 323 325 327 328 330 334 336 336 336 335 335 335 336 336 336 335 335 334 334 334 334 333 333 333 334 333 333 334 333 333 334 333 332 331 333 336 333 331 334 334 334 334 334 334 335 334 335 334 333 334 331 321 316 315 314 313 313 312 311 312 313 312 313 313 312 314 320 326 328 329 329 329 329 328 326 325
299 300 302 303 302 303 305 308 314 319 323 325 328 329 332 335 335 335 335 334 334 335 335 336 336 335 335 334 334 334 333 333 333 333 333 333 334 333 333 334 333 333 331 330 335 334 331 332 334 334 334 333 334 334 334 335 334 333 333 326 317 315 315 314 314 314 313 312 312 313 313 314 314 313 312 312 317 324 328 329 328 328 327 325 323
300 299 300 302 303 304 305 306 311 316 320 323 326 328 330 334 335 335 335 335 334 335 335 336 336 335 335 334 334 334 333 333 333 333 333 333 334 333 334 334 333 333 332 330 333 334 331 331 333 334 334 333 334 333 334 334 333 333 331 321 315 316 315 314 315 315 314 314 313 313 313 314 314 314 313 311 311 315 321 327 329 327 326 325 323
302 300 299 301 303 304 305 305 307 312 316 320 324 327 329 332 334 335 335 335 335 336 336 336 336 335 335 335 334 334 334 333 333 333 334 333 333 333 333 334 334 333 333 332 332 332 332 332 332 334 335 334 334 334 334 334 333 333 329 318 315 317 315 315 315 316 316 315 315 314 313 314 315 315 314 313 312 310 312 320 327 328 325 324 323
303 302 300 300 303 305 305 305 306 310 314 318 321 325 328 330 332 335 335 335 335 336 336 336 336 335 335 335 334 334 334 333 334 333 334 333 333 334 334 334 334 334 334 334 332 331 332 332 332 334 335 334 334 334 334 333 333 333 327 317 316 317 316 317 316 316 317 316 316 315 314 315 315 316 316 314 312 312 309 313 323 327 325 323 323
303 303 301 300 302 304 305 305 305 308 313 316 320 323 326 328 330 332 334 335 335 335 335 336 336 334 335 335 335 335 334 334 334 333 333 334 333 333 334 333 334 335 334 334 333 331 332 332 332 334 335 335 334 333 333 333 333 332 326 317 316 317 317 317 318 317 318 317 316 316 316 316 316 316 317 315 313 312 310 310 317 325 325 323 322
304 303 302 301 301 303 304 305 306 307 311 315 319 322 324 327 328 329 333 335 335 335 335 336 336 335 335 335 335 335 335 334 334 334 334 334 334 334 334 334 334 334 334 334 333 332 332 332 332 333 335 335 334 333 333 333 332 331 326 318 317 318 317 318 318 318 319 318 316 315 315 316 317 317 317 316 313 312 311 310 314 322 325 322 320
303 302 301 300 301 302 303 304 306 307 310 314 318 321 322 325 327 328 331 332 332 335 336 336 336 335 336 336 335 335 335 334 334 334 334 334 334 334 334 334 334 333 333 333 332 332 332 332 332 333 334 335 334 333 333 332 331 330 326 321 319 319 318 318 319 319 319 319 318 317 315 315 317 317 317 316 314 312 312 310 313 320 323 320 320
303 302 301 301 300 301 302 303 305 307 309 313 317 319 321 323 326 328 330 332 333 335 336 336 336 336 335 336 335 335 335 335 334 334 334 334 334 334 334 334 334 333 333 333 333 332 332 332 333 333 334 334 334 333 332 332 331 329 326 322 321 320 319 319 319 319 319 319 320 318 316 314 316 317 317 316 315 313 312 311 313 318 320 320 319
303 302 301 301 301 301 302 303 305 307 309 312 316 319 320 323 325 327 330 332 332 333 336 336 336 336 335 335 335 335 335 334 334 335 335 334 334 334 334 333 333 333 333 332 332 332 331 331 332 332 333 333 333 333 332 331 329 328 326 323 323 322 320 319 320 320 320 320 320 319 317 314 314 317 317 316 316 314 312 312 313 314 317 319 319
303 302 301 301 301 301 302 303 304 307 310 312 316 319 321 323 325 327 330 331 330 332 335 335 335 336 335 335 335 335 334 334 334 335 335 334 334 333 333 333 333 333 333 332 332 332 331 331 332 333 332 332 332 331 331 329 328 328 326 324 323 322 321 320 320 320 320 320 320 320 318 315 314 316 317 316 316 316 314 313 313 313 316 319 319
303 302 302 302 301 301 302 303 304 306 309 313 316 318 320 321 323 325 328 330 332 333 335 335 334 336 335 335 335 334 334 335 334 334 334 334 334 333 333 333 333 333 333 332 332 331 331 332 332 333 332 331 332 331 331 330 329 328 327 325 324 323 321 321 321 321 321 321 321 320 319 316 314 315 317 316 316 318 316 313 314 314 315 318 318
303 303 302 302 302 302 302 303 304 306 309 312 315 317 317 318 320 322 324 329 333 333 334 334 334 335 335 335 335 334 334 335 334 334 334 334 334 334 333 333 333 333 332 332 332 331 331 332 332 332 332 332 332 332 331 331 329 329 327 326 325 324 322 323 323 322 321 321 321 321 320 318 315 314 316 316 316 319 318 315 315 315 315 318 317
303 303 303 302 302 302 302 303 304 306 309 311 313 315 315 316 319 320 320 326 332 333 334 334 334 335 335 334 334 334 334 335 334 334 334 334 334 334 333 333 332 332 332 332 332 332 332 332 332 332 332 332 333 332 332 331 330 329 328 326 326 325 324 324 324 323 322 321 322 321 320 319 316 314 316 316 316 320 320 316 315 316 316 318 316
303 303 302 302 302 302 302 303 304 306 309 311 313 315 316 317 319 320 319 323 329 332 333 333 333 334 335 334 334 334 334 334 334 334 334 333 334 333 333 333 333 333 333 332 332 333 332 333 332 332 332 332 332 333 332 331 331 329 327 326 326 326 326 325 324 323 322 322 322 322 321 320 317 314 315 316 316 320 322 318 316 316 316 316 315
303 303 302 302 302 302 302 303 305 307 309 311 313 314 316 316 317 318 318 320 326 331 334 333 333 334 334 334 333 333 333 334 334 334 335 333 333 333 332 333 333 333 333 333 333 333 333 333 332 332 332 332 332 333 333 332 331 330 329 327 326 327 326 325 323 322 322 323 322 323 322 321 318 315 315 316 317 320 323 319 315 316 315 313 314
303 303 302 302 302 302 303 304 306 308 309 312 313 314 315 316 316 317 316 317 322 329 333 333 333 334 334 333 333 333 332 333 333 334 335 333 333 333 332 332 332 333 333 333 333 333 332 332 332 332 332 332 332 332 332 332 331 331 330 328 326 327 327 325 324 322 323 324 324 324 324 321 319 316 314 315 316 319 322 319 314 315 314 311 314
303 302 302 302 302 303 304 305 306 308 310 311 313 314 314 315 316 316 316 315 319 326 332 333 333 334 333 332 333 333 333 333 333 334 335 334 333 332 331 331 332 332 333 332 333 333 332 332 332 331 331 332 332 332 332 332 331 331 331 328 326 327 326 326 325 323 322 323 325 325 324 320 318 316 315 315 316 317 321 319 314 314 313 310 313
302 302 302 302 303 303 304 305 307 309 311 312 313 314 314 315 316 316 315 316 318 324 331 333 332 332 332 331 333 333 333 333 332 333 334 334 333 332 332 331 332 332 333 332 333 333 332 332 332 332 332 332 332 332 332 332 332 331 330 328 327 327 327 327 326 323 322 323 325 327 324 319 317 316 315 315 315 316 319 319 314 313 313 309 311
302 302 302 303 303 304 305 306 308 310 311 312 313 313 313 314 315 315 315 316 319 324 330 333 332 330 330 331 332 333 333 333 333 333 334 334 333 332 332 332 331 332 332 332 333 332 332 332 332 332 332 332 332 332 332 332 332 332 330 330 328 327 328 328 326 323 322 323 325 326 323 319 317 316 315 315 316 315 318 320 316 313 313 311 309
302 302 303 304 304 305 306 307 309 311 312 313 313 314 313 314 314 315 315 317 321 325 329 332 331 331 330 331 332 333 333 333 333 333 334 334 333 332 332 332 331 331 332 332 332 331 331 332 332 332 332 332 332 332 331 332 332 332 332 331 329 328 328 328 325 323 322 323 325 325 323 319 318 318 316 316 318 317 316 320 319 315 313 312 310
Wind_Speed
14 14 14 14 14 14 15 15 15 14 14 13 13 13 13 12 12 12 13 13 14 15 15 16 16 16 16 16 16 15 14 13 13 12 13 12 10 9 9 8 8 9 10 9 10 13 14 12 11 11 10 9 9 9 10 9 9 9 8 7 7 6 5 5 6 6 5 4 4 3 1 2 3 3 2 2 2 3 4 5 7 9 11 10 6
15 15 15 15 15 15 15 15 15 15 16 15 15 15 15 14 14 13 13 14 14 15 15 16 16 16 16 16 16 15 14 14 14 14 15 15 12 10 10 10 8 9 11 10 10 12 13 12 12 11 10 10 9 9 10 9 9 9 9 8 8 8 6 5 6 6 4 3 2 2 0 1 2 2 2 2 3 4 5 6 8 9 11 10 5
16 16 16 16 16 15 15 15 15 16 16 17 16 16 17 17 16 15 15 15 15 15 15 15 15 15 15 15 15 15 14 13 14 15 15 15 13 11 11 11 10 11 11 10 10 12 12 12 12 12 10 10 11 10 9 9 8 8 9 9 9 8 7 6 7 6 3 1 0 1 1 1 2 2 3 3 4 5 6 7 8 9 10 8 2
18 17 17 17 17 16 16 15 15 14 15 16 17 17 18 19 18 17 16 15 16 15 14 15 16 15 15 15 15 14 14 13 14 16 16 14 13 12 12 13 12 11 11 10 11 12 13 13 13 12 11 11 12 11 10 9 9 8 10 10 7 6 7 7 7 5 2 1 2 2 2 2 2 3 4 4 5 6 7 8 8 9 10 7 4
20 19 17 17 17 17 17 17 15 14 13 14 15 17 18 20 20 19 18 17 18 17 15 16 17 17 16 15 16 15 13 14 15 16 16 15 13 13 13 13 13 12 11 11 11 12 13 15 14 14 13 13 12 11 10 10 10 9 9 11 9 6 6 7 7 5 2 1 1 1 2 3 3 4 4 5 6 7 8 9 9 9 8 6 5
22 21 20 19 18 18 18 17 15 14 13 13 14 15 18 20 20 21 20 19 20 19 18 18 18 18 17 16 16 15 13 14 15 15 16 15 13 13 13 13 14 13 12 11 11 12 14 15 15 14 14 13 12 12 11 10 10 9 9 11 11 8 6 6 5 5 3 1 0 1 3 4 5 5 6 7 7 8 8 9 9 8 6 5 5
22 22 22 21 20 19 18 17 15 14 14 14 14 15 17 19 21 22 22 22 22 21 20 20 19 19 18 17 16 14 14 15 15 15 16 14 13 13 13 14 14 14 13 12 12 12 13 14 14 14 14 13 12 12 11 10 10 10 9 10 10 8 7 6 5 5 3 2 2 2 4 5 6 6 7 7 6 7 8 8 7 6 4 4 4
22 22 23 23 22 20 18 16 15 15 15 14 15 16 17 19 21 22 23 24 23 21 21 21 21 20 18 18 16 14 15 15 15 16 15 13 12 13 13 14 14 14 13 12 12 12 12 13 13 13 13 13 12 12 11 10 9 10 9 10 10 9 8 8 6 5 3 3 3 3 5 6 6 6 7 6 6 8 7 7 6 4 3 4 4
21 22 23 23 23 21 19 17 16 16 15 15 15 16 17 19 21 22 24 24 21 20 21 21 20 19 18 18 16 14 15 15 15 16 14 12 13 14 14 14 14 13 12 12 12 12 12 12 11 12 12 12 12 11 11 10 10 10 9 9 10 11 10 9 8 5 4 4 4 4 6 6 7 6 7 7 7 8 6 5 4 3 2 3 3
21 22 22 22 22 21 20 18 18 17 16 16 15 16 17 17 19 22 22 19 17 19 21 21 21 20 20 20 16 15 16 15 15 15 12 13 13 14 15 14 14 13 12 12 12 12 12 11 11 12 12 12 12 11 10 11 11 10 10 10 11 11 10 9 10 7 5 5 5 6 6 6 7 7 8 8 7 5 4 3 3 3 2 3 3
21 22 21 21 21 20 19 17 17 18 18 18 17 16 17 16 16 18 19 16 16 18 19 18 19 21 22 21 17 15 15 15 15 13 12 13 14 15 14 13 13 12 11 11 11 12 11 11 11 12 12 12 12 12 11 11 11 10 10 11 11 10 10 10 11 8 6 6 6 6 6 7 7 7 8 6 4 3 2 2 2 2 3 3 4
21 21 22 22 21 20 18 17 17 17 19 20 20 18 17 16 14 15 18 18 18 21 19 17 17 21 23 20 16 14 14 14 14 11 11 14 15 15 14 13 13 12 11 11 11 11 10 11 11 11 11 11 11 12 12 12 12 11 11 11 10 10 9 10 10 8 7 7 7 7 6 7 7 7 6 4 2 2 3 2 3 3 3 4 5
22 22 23 23 23 22 21 19 18 18 19 20 21 20 17 14 12 12 17 19 19 20 19 15 13 15 16 13 11 11 11 12 12 11 12 14 15 15 15 14 13 12 11 12 12 11 11 11 11 11 10 10 10 11 12 12 12 12 12 12 10 10 10 10 9 8 8 9 8 6 6 6 6 5 3 1 1 2 2 2 3 3 3 5 6
23 23 24 24 24 24 23 22 20 19 19 19 20 20 17 13 11 12 15 18 19 17 14 12 10 11 11 7 5 6 7 8 10 11 13 15 16 16 15 15 13 12 12 13 13 12 11 11 11 11 11 10 10 10 11 11 12 12 12 12 11 11 11 10 10 9 8 8 7 6 6 6 5 3 1 0 1 1 2 2 3 3 4 6 6
24 24 25 25 25 25 24 24 22 21 21 19 19 19 17 15 15 15 16 17 19 16 13 14 14 12 8 4 2 2 3 5 8 11 13 15 16 16 16 16 15 13 13 14 14 13 12 11 11 11 11 11 10 10 10 10 10 11 11 11 11 11 12 11 10 8 7 6 6 5 5 5 3 1 1 2 3 2 1 1 3 4 5 6 6
24 25 25 25 25 26 25 24 23 22 22 21 21 20 19 19 19 19 18 18 17 14 12 16 17 13 6 1 1 1 1 3 6 10 13 14 16 16 17 17 17 16 16 15 14 14 13 12 11 10 11 11 10 10 10 9 9 10 10 11 11 11 12 11 10 9 7 6 6 5 4 3 1 1 3 4 4 3 0 2 3 4 6 7 6
19 21 23 24 25 26 26 26 25 24 23 22 23 22 20 21 21 21 21 20 18 14 12 15 19 20 14 5 2 1 1 2 3 7 12 14 15 17 17 18 18 18 17 16 15 14 14 13 12 11 11 11 11 10 11 10 9 10 11 10 10 10 11 12 11 9 8 8 8 6 3 2 2 3 5 4 3 2 2 4 4 5 7 8 8
16 17 19 21 23 25 26 27 27 26 24 22 23 23 22 22 22 22 22 21 19 16 15 15 17 21 20 12 6 3 2 3 2 2 6 11 14 17 17 18 19 18 17 17 16 15 15 14 13 12 11 11 11 11 11 11 11 11 11 10 10 10 11 11 11 9 8 9 9 5 3 3 4 5 4 2 1 1 3 5 5 6 8 9 9
17 18 18 19 20 23 26 27 27 27 26 24 23 24 23 23 23 23 23 21 20 19 18 16 15 17 20 18 13 9 6 4 3 1 1 5 10 14 15 16 17 18 18 18 17 16 15 14 13 12 12 11 11 11 11 11 11 11 11 10 9 10 10 11 11 9 9 9 7 4 3 4 4 3 2 0 1 2 4 5 5 7 9 9 9
16 17 19 20 20 21 23 25 27 28 26 25 26 25 22 21 23 23 22 21 22 22 21 19 17 19 21 19 16 15 12 9 7 5 2 1 4 7 10 13 15 17 18 17 17 16 15 14 13 12 12 12 11 11 11 11 12 11 11 10 8 9 10 10 10 9 9 8 5 4 4 5 4 3 1 1 2 3 3 6 6 7 10 10 8
15 15 16 18 20 22 23 24 26 27 26 26 27 26 22 20 22 24 23 21 22 23 23 22 23 23 22 18 15 15 13 11 10 7 5 3 3 2 4 7 10 14 16 17 16 16 14 13 12 12 11 11 10 10 10 11 12 11 11 10 8 9 10 9 8 9 8 7 5 4 5 4 3 2 2 2 2 2 3 6 7 8 11 10 8
16 15 14 14 16 20 24 25 25 26 26 26 27 26 24 22 22 24 23 20 21 23 23 24 24 25 24 21 18 15 11 7 8 8 5 3 4 2 3 5 4 7 12 15 16 15 14 13 12 12 12 11 9 9 10 11 11 10 9 8 8 10 10 9 8 8 7 6 5 5 4 3 2 2 3 4 4 2 3 6 7 9 11 10 8
17 15 15 15 15 17 20 24 25 25 25 25 26 27 26 25 23 23 22 21 22 23 24 24 24 25 26 26 25 22 17 12 12 14 9 4 3 2 4 6 4 4 7 11 14 14 14 13 12 12 11 10 9 9 11 10 9 9 8 8 9 10 10 9 9 9 7 6 5 4 3 2 2 2 3 5 5 3 4 7 8 9 12 11 9
15 15 16 16 17 17 18 20 22 23 24 25 27 28 28 27 26 25 24 23 23 24 24 24 24 25 27 29 29 27 25 23 21 20 17 13 9 4 3 5 4 4 5 6 10 13 14 13 13 12 12 10 9 9 10 9 9 9 9 9 9 10 11 11 10 9 6 5 4 3 2 2 2 2 3 5 6 4 5 7 9 10 12 12 10
14 15 15 16 17 18 19 20 21 22 23 25 27 28 28 28 27 27 26 25 24 25 26 26 26 27 28 30 30 29 29 28 25 23 21 18 13 5 3 4 3 3 4 4 5 8 11 12 12 12 12 10 9 9 9 8 8 9 9 9 10 12 12 11 10 8 6 5 4 3 3 3 4 5 4 3 4 6 7 8 10 11 13 12 10
16 16 16 16 17 17 18 19 20 21 23 25 26 27 28 29 29 28 28 27 26 26 27 28 27 28 28 29 30 31 31 30 27 25 22 19 15 10 5 3 2 2 3 4 5 5 7 9 9 11 11 10 9 9 9 8 9 10 11 11 13 13 12 10 9 8 7 6 5 5 5 5 5 5 4 3 6 8 8 9 11 12 14 13 10
18 18 17 18 18 18 18 19 19 20 23 25 26 27 28 29 30 30 29 28 27 27 28 29 29 28 29 30 30 31 32 30 29 27 26 22 20 18 12 6 3 3 2 3 5 7 8 6 6 10 11 10 10 10 9 9 10 11 12 14 14 13 11 10 10 9 8 7 7 7 7 6 6 6 4 4 7 8 8 10 12 13 15 13 9
19 19 18 18 20 20 20 19 19 19 21 23 25 27 28 29 30 31 30 28 27 27 28 29 30 29 29 30 30 30 31 31 30 29 28 26 23 22 19 13 7 4 4 5 5 7 11 9 7 9 11 11 11 11 10 11 12 13 14 15 14 13 12 11 10 9 9 9 9 8 8 7 7 8 7 5 6 8 8 10 13 15 15 13 10
21 19 18 18 19 21 22 21 20 19 19 21 24 26 28 30 31 31 31 30 28 28 29 30 31 30 29 29 30 30 30 30 30 30 29 28 26 24 23 20 14 7 3 5 6 6 10 12 10 9 12 12 11 12 13 14 14 15 16 15 14 14 13 12 11 10 11 10 9 8 8 8 9 10 8 6 7 8 8 10 14 16 16 13 10
24 22 20 19 19 20 22 23 22 21 21 21 22 25 27 30 32 32 32 31 30 30 30 31 31 31 30 30 30 30 30 30 30 31 29 28 28 26 24 24 22 13 7 4 6 9 11 12 12 12 12 13 12 13 15 15 15 16 16 15 15 15 14 12 11 12 12 11 10 9 8 8 9 10 9 7 7 8 9 12 14 16 16 12 8
27 25 23 21 21 20 22 24 23 23 23 23 22 23 26 29 31 31 32 32 31 31 31 31 31 31 30 30 31 30 29 29 29 29 29 29 29 27 25 25 25 22 16 8 3 8 14 14 13 14 14 14 14 15 16 17 17 18 17 16 16 16 14 12 12 12 12 11 10 9 7 8 8 8 8 8 8 8 10 13 15 16 15 11 8
26 27 26 23 22 22 22 24 24 23 24 25 24 23 25 29 30 31 31 32 33 33 32 31 31 31 31 30 31 31 28 27 28 29 29 29 29 28 26 26 26 25 22 15 5 5 13 16 13 14 16 15 15 17 19 19 19 19 18 17 18 17 15 14 13 12 12 11 10 8 7 7 7 7 7 7 8 9 10 12 14 15 13 9 9
26 27 28 25 23 22 23 24 24 24 24 25 26 24 25 28 30 31 30 31 33 34 33 33 32 32 32 31 31 31 29 28 28 29 29 29 28 27 26 26 27 26 24 20 10 5 9 14 13 14 16 17 17 20 21 22 21 20 19 19 20 18 16 15 14 13 12 11 10 9 8 8 7 6 5 5 6 7 8 11 13 14 12 9 8
26 26 29 28 25 23 23 24 25 25 25 26 27 26 25 26 29 31 31 31 32 32 31 33 35 34 32 31 30 30 30 29 28 28 29 29 28 26 25 26 28 27 26 24 16 9 8 12 14 15 16 18 19 21 23 25 25 23 21 22 22 19 17 16 16 14 13 11 11 10 9 8 7 6 5 4 5 6 6 9 13 13 12 10 8
27 28 29 29 27 24 23 24 26 27 26 26 27 27 26 27 28 30 31 31 32 32 30 31 34 34 32 30 30 30 30 30 29 29 29 29 28 26 26 27 28 28 28 26 20 15 12 12 14 17 18 20 21 23 24 25 26 25 24 25 23 21 19 17 16 15 13 12 11 11 10 8 7 6 5 5 5 5 5 8 13 14 12 10 8
27 29 30 29 27 25 25 25 26 27 27 27 27 27 27 28 28 29 31 31 32 33 33 32 32 33 32 31 31 30 30 30 30 30 28 28 28 27 26 27 28 28 28 27 23 19 16 14 14 18 21 21 22 24 24 25 27 26 26 26 25 23 21 19 17 15 13 11 11 11 11 10 8 7 7 6 6 6 4 7 13 16 14 11 9
27 29 30 30 28 26 26 26 27 28 28 28 28 28 28 29 29 29 31 32 31 32 34 34 32 32 33 33 32 31 31 31 31 31 30 29 29 28 27 27 27 27 26 27 26 22 20 17 16 18 21 21 22 25 26 27 29 27 26 27 26 24 22 20 18 16 14 12 11 11 11 11 10 8 7 7 7 7 5 6 14 18 16 13 11
28 28 29 30 29 28 28 27 27 28 29 29 28 28 30 30 30 30 30 33 34 32 33 34 33 33 33 33 32 32 33 33 33 32 31 30 29 29 29 27 26 25 24 25 26 24 22 20 18 19 21 21 23 25 26 28 30 29 26 23 23 23 23 22 20 17 16 13 12 11 11 11 11 10 8 7 7 7 5 6 14 19 18 15 13
29 29 29 30 30 30 30 29 29 29 30 30 29 29 30 31 31 31 30 32 34 32 32 34 35 35 35 34 33 33 34 36 34 32 31 31 31 31 30 28 26 25 24 24 26 26 23 19 19 20 22 23 24 26 27 28 29 29 28 23 19 20 22 23 22 20 18 16 14 12 11 11 12 11 9 7 7 7 5 6 13 19 19 17 14
30 29 29 30 31 32 31 30 30 30 30 30 30 29 31 31 31 31 31 32 34 33 32 34 36 37 37 36 34 34 36 37 36 33 32 33 32 30 30 30 27 26 25 25 26 26 23 20 20 22 22 23 24 26 27 27 25 26 28 28 24 21 21 22 22 21 19 18 15 13 12 12 12 12 10 8 7 6 5 6 12 18 19 18 16
31 30 30 31 32 33 33 32 31 31 30 30 30 29 30 30 30 30 30 32 35 34 33 33 35 37 38 37 36 36 37 37 37 36 35 36 34 32 32 32 30 28 27 26 26 25 23 22 22 23 22 20 22 28 28 27 27 27 27 26 23 20 20 21 21 22 20 18 16 14 13 12 13 12 11 9 7 6 5 6 11 16 20 20 18
31 31 31 32 32 33 34 33 32 31 30 30 30 30 31 31 30 30 30 32 34 34 33 34 34 36 37 38 38 38 37 37 38 38 38 38 37 36 35 34 33 31 29 27 26 26 24 22 22 24 23 19 22 29 32 30 30 29 27 24 21 19 18 17 17 20 21 19 17 16 15 13 13 13 12 10 8 6 4 5 10 15 20 22 19
32 31 31 32 33 34 34 33 33 33 32 32 32 32 33 34 33 31 30 32 35 36 34 34 35 34 36 38 38 37 36 37 38 39 39 39 38 38 37 36 36 36 34 31 28 27 25 23 22 25 24 21 23 29 32 31 28 29 29 26 23 23 21 16 12 15 21 22 19 17 16 14 14 14 13 11 9 7 4 4 9 15 20 22 21
32 31 32 33 34 35 34 33 34 35 35 34 35 35 35 35 34 32 30 32 36 36 34 35 36 35 34 36 36 35 35 37 37 37 38 39 39 38 38 37 38 38 38 36 34 31 29 25 23 24 24 23 23 27 31 30 28 29 29 26 25 27 26 21 15 13 19 24 21 18 17 16 15 15 14 12 10 8 5 3 7 14 21 23 21
32 32 33 33 34 36 35 33 35 37 37 36 35 35 36 35 34 32 30 32 35 36 35 36 37 35 34 35 34 34 35 36 36 35 36 37 38 38 37 36 37 38 37 37 37 35 35 31 27 25 26 26 26 28 32 33 30 29 27 24 26 29 27 25 22 19 19 24 24 20 17 17 16 16 16 13 11 9 6 2 5 12 21 24 21
32 33 34 34 35 37 35 33 35 36 36 36 35 35 36 36 35 33 31 31 34 34 34 36 36 35 36 35 34 33 34 35 36 36 35 36 37 37 36 34 35 37 37 37 37 36 36 36 34 32 33 32 31 33 36 37 35 33 30 28 29 31 29 27 26 23 20 21 25 21 15 17 19 17 16 16 12 10 7 3 3 9 18 24 23
33 33 34 34 35 38 36 33 33 35 35 36 36 36 37 36 35 34 31 30 32 33 34 35 36 36 37 36 35 34 34 35 37 37 35 36 37 36 35 35 35 37 37 38 38 37 36 37 37 37 37 36 35 35 37 38 37 36 35 34 33 32 27 23 21 22 19 19 24 21 14 15 20 18 17 17 15 12 9 5 3 8 16 23 23
34 34 34 35 36 38 36 32 31 34 36 37 36 36 37 35 34 33 31 30 32 34 35 36 36 36 37 38 36 35 35 35 37 37 36 36 36 35 35 35 34 35 37 38 38 36 35 36 36 36 35 35 34 35 37 39 38 36 33 30 27 25 21 17 17 20 21 19 23 23 16 13 18 19 17 17 17 15 12 9 6 7 14 22 23
34 34 35 36 37 38 35 31 30 33 36 36 35 35 35 34 34 33 31 29 30 33 35 36 36 35 37 39 37 34 35 36 37 38 38 36 35 35 35 33 31 31 33 35 35 34 33 34 33 32 31 31 32 33 36 38 38 37 31 26 24 24 22 16 13 18 22 21 22 24 18 13 16 19 17 16 17 17 15 12 9 9 14 20 23
35 36 36 37 39 39 34 32 32 33 35 36 35 35 35 34 34 32 29 26 27 31 33 34 35 35 35 37 36 35 35 36 37 38 40 38 35 36 34 31 30 30 30 32 33 32 31 30 30 29 28 28 30 31 33 36 39 39 36 31 31 31 25 17 14 15 17 20 24 24 18 13 15 18 17 13 13 17 18 16 13 11 14 19 23
37 38 36 35 37 36 33 33 34 34 35 36 35 35 36 36 34 33 29 25 25 29 31 31 32 34 34 34 36 36 35 36 38 40 42 40 37 36 35 31 28 28 29 31 32 32 30 29 28 28 26 25 27 29 31 34 38 40 37 35 36 36 28 21 20 15 8 14 24 26 20 16 17 19 18 11 6 10 18 19 16 14 16 19 23
Wind_Direction
238 235 234 236 236 235 235 233 233 234 236 244 254 261 265 264 264 267 270 272 272 272 271 270 270 274 278 280 282 284 288 288 290 298 304 306 301 280 259 242 240 246 231 212 194 194 203 202 200 203 209 212 209 213 216 219 225 224 231 241 258 272 270 280 295 290 273 265 250 219 244 295 279 290 299 324 315 321 339 347 352 338 331 340 341
244 243 241 242 243 242 242 241 239 238 240 245 253 263 268 268 268 269 271 274 275 277 279 277 274 273 276 278 280 282 284 284 287 294 298 297 293 281 264 249 242 243 231 217 204 200 204 203 202 206 211 215 215 217 217 218 226 232 241 244 251 265 270 278 294 292 274 271 256 214 293 317 310 320 336 344 330 342 347 343 343 327 328 342 330
245 246 245 246 247 247 248 246 246 245 245 248 252 259 265 269 272 272 273 276 276 276 279 281 279 276 277 278 281 282 280 281 286 291 295 292 283 274 262 252 247 240 230 220 211 208 208 206 206 210 214 218 219 219 217 219 229 233 238 249 256 261 264 274 286 283 263 257 39 88 55 13 351 351 349 350 346 343 338 331 330 321 329 348 9
247 246 246 246 249 252 252 251 253 252 251 253 255 258 264 269 272 273 276 279 279 276 277 282 282 281 281 283 286 284 278 281 287 291 295 290 276 267 257 250 250 243 230 223 218 214 213 212 211 214 219 221 220 220 221 225 232 232 235 255 276 279 274 275 275 268 222 129 66 65 48 30 357 349 343 341 338 331 325 319 321 328 339 6 42
251 249 248 246 249 252 254 256 257 259 261 260 260 261 264 268 271 272 273 274 276 277 278 280 282 285 287 289 292 286 280 283 287 294 297 288 272 261 252 246 248 245 233 224 223 220 217 218 217 218 221 221 220 220 225 230 234 236 241 259 281 293 289 279 263 241 190 148 68 49 14 9 353 347 338 328 325 319 319 319 326 338 355 32 42
252 252 250 248 248 250 253 257 259 262 266 268 270 269 267 269 271 271 271 271 272 276 279 279 281 286 290 293 295 288 282 285 290 298 297 283 268 257 248 243 246 246 237 227 225 223 221 223 220 219 221 220 221 223 227 232 236 240 246 260 273 279 279 277 254 221 198 196 195 347 345 347 337 334 326 320 321 318 321 327 334 342 359 42 39
252 252 251 250 249 249 253 256 259 262 266 270 275 276 275 272 271 271 271 270 270 274 278 281 284 286 291 298 298 289 283 286 291 299 295 277 261 254 245 240 244 246 241 234 229 225 223 226 224 221 222 220 222 227 229 230 237 242 246 252 259 263 268 283 266 223 212 222 242 308 331 334 330 326 321 318 319 319 322 332 346 351 359 37 36
251 251 252 251 250 251 254 257 258 259 263 268 272 279 281 278 275 271 269 268 269 272 277 282 283 284 291 298 298 290 284 286 291 296 290 270 255 252 244 237 241 244 244 240 234 229 226 228 228 226 225 221 221 227 230 231 238 243 244 245 246 250 259 279 280 238 226 246 254 300 324 327 329 327 326 326 324 325 329 341 357 359 9 45 43
248 249 250 251 252 253 255 256 255 255 256 258 261 266 271 276 277 273 269 268 269 273 278 282 281 282 290 297 296 288 284 284 289 292 282 259 247 245 239 234 237 241 244 244 240 235 231 232 234 233 231 228 223 225 231 235 239 242 245 246 243 244 248 264 276 252 238 255 263 299 319 324 326 328 327 324 325 328 334 346 7 13 30 60 60
247 246 246 247 250 253 256 255 254 253 250 248 249 252 255 262 271 275 273 268 269 273 272 275 281 286 292 295 291 284 281 281 284 286 272 250 240 236 233 231 235 239 243 246 243 237 235 237 239 238 237 236 232 230 234 239 242 243 245 245 241 243 246 254 268 261 245 253 272 298 311 318 321 325 323 321 327 331 340 2 27 33 49 79 85
247 245 243 243 245 249 252 252 253 255 251 246 244 246 245 245 256 272 275 268 267 267 262 264 275 282 289 290 283 275 272 273 278 277 260 244 236 231 230 230 232 237 242 245 244 239 238 239 240 240 240 241 241 239 238 240 243 244 244 243 240 245 249 249 256 254 243 256 279 296 303 312 318 323 323 326 344 360 31 42 46 57 71 87 95
250 248 246 245 245 247 247 245 246 249 250 248 246 245 241 235 238 254 265 265 261 261 259 258 264 274 283 282 272 265 260 260 268 267 249 239 234 230 230 231 232 236 242 244 244 243 243 242 241 243 243 242 245 245 243 241 243 245 247 246 241 243 245 240 241 243 251 268 279 288 300 311 316 321 324 337 24 38 54 52 55 73 89 100 114
256 254 252 250 249 250 248 245 240 238 243 247 248 249 245 238 231 236 252 256 254 253 253 253 262 273 275 266 254 251 250 253 257 251 238 233 231 232 233 233 235 237 243 248 248 247 249 248 245 245 246 244 244 245 245 243 241 243 246 249 244 237 234 233 237 245 259 273 276 283 301 313 317 321 324 9 56 44 55 52 58 80 106 115 127
260 258 256 253 252 252 252 249 243 235 234 240 244 246 243 237 227 221 236 248 252 247 237 236 247 257 256 240 231 235 237 244 243 236 232 230 231 232 234 237 239 241 246 250 252 252 253 253 250 248 248 246 244 243 242 241 240 241 243 247 245 239 238 245 249 248 256 271 279 287 303 311 312 321 323 47 22 15 40 52 65 88 117 128 137
265 263 261 258 255 255 255 254 249 240 234 232 235 236 229 225 221 217 223 238 252 250 235 231 230 238 254 246 206 204 218 233 229 225 225 227 230 232 235 239 241 246 249 250 254 255 255 256 255 251 249 248 246 242 238 238 238 239 243 244 243 242 244 253 260 259 262 274 280 285 297 305 302 290 283 304 318 330 348 69 83 105 131 137 136
270 268 266 263 259 258 259 256 251 246 241 235 233 229 219 217 220 219 218 223 238 242 234 233 226 219 227 236 153 164 197 227 218 222 225 226 230 232 236 239 241 246 250 250 254 257 257 259 261 257 252 248 246 244 238 236 236 236 241 242 242 242 241 247 258 266 274 283 287 290 292 298 272 256 292 306 313 324 292 132 105 121 138 135 123
278 276 272 268 263 261 261 259 255 250 245 240 240 238 226 222 222 220 219 219 225 226 219 226 227 222 218 200 127 153 215 208 196 224 228 228 232 233 235 238 240 245 248 249 252 256 258 261 263 262 255 248 247 247 238 235 235 231 231 236 240 242 241 240 243 253 264 273 282 289 279 265 262 285 303 309 310 323 142 137 123 135 140 133 122
286 283 280 274 267 263 262 262 260 256 250 245 244 243 235 228 225 221 220 221 224 223 220 222 226 229 231 227 213 199 171 147 142 231 232 229 233 235 236 237 239 243 244 246 250 254 258 261 263 263 261 254 249 247 239 234 236 232 228 232 237 239 240 236 236 243 248 259 272 273 253 262 278 288 294 288 305 25 133 140 137 141 140 135 128
292 286 282 279 274 268 265 262 262 262 258 252 245 241 237 233 230 226 223 221 220 220 223 221 217 225 235 236 229 220 211 188 177 172 234 231 232 232 235 236 239 242 243 245 249 253 256 257 260 262 262 256 250 246 240 233 236 238 236 238 237 232 232 232 233 235 239 251 259 241 243 276 282 274 258 217 36 71 131 146 144 143 141 137 129
314 301 290 282 278 274 270 266 264 263 258 254 250 246 240 235 234 233 228 221 217 218 220 215 208 214 224 230 231 226 227 227 216 204 180 212 236 230 230 233 237 242 244 245 247 250 251 251 254 259 260 256 249 243 235 230 233 233 235 241 233 223 228 230 228 228 234 239 226 218 261 278 263 229 178 131 72 70 117 148 155 149 141 136 128
337 327 313 296 283 276 274 270 265 262 256 252 254 252 245 237 234 235 231 223 218 218 218 213 211 215 216 219 226 225 223 224 220 210 193 208 237 235 227 230 237 242 243 242 242 244 244 244 248 252 256 256 249 238 229 228 229 227 232 235 220 216 226 223 218 219 219 214 206 232 265 259 239 212 155 155 139 76 112 154 167 155 140 134 130
344 336 328 317 296 280 274 269 266 265 260 254 253 252 249 243 236 235 234 229 223 221 221 218 217 219 218 213 212 213 210 208 209 200 188 214 233 238 229 221 228 238 237 235 236 238 239 239 244 248 251 254 247 234 227 227 228 229 230 227 213 211 214 205 201 203 195 197 216 241 251 234 209 180 148 153 152 109 130 162 170 155 140 137 137
349 338 329 322 305 286 276 271 268 264 260 257 253 251 252 250 244 239 235 232 231 227 225 223 220 221 222 217 211 210 210 207 207 203 196 195 209 240 237 222 227 230 227 231 233 236 238 239 242 246 250 252 245 233 228 223 223 222 217 215 209 200 193 189 188 185 181 197 220 225 234 223 178 175 165 162 158 129 134 161 168 154 143 142 143
350 344 337 329 313 295 282 275 272 265 259 259 256 253 253 252 249 245 238 234 234 232 228 225 220 217 221 222 219 218 218 218 218 214 213 212 211 221 218 208 226 236 230 234 236 236 237 239 241 240 245 249 242 229 220 213 213 209 201 202 198 182 177 181 182 180 183 195 201 200 210 207 159 139 142 166 178 167 151 162 167 154 147 147 144
340 337 336 334 327 314 298 282 275 269 264 261 259 256 254 251 248 246 241 237 235 233 231 228 223 218 220 224 223 221 221 223 224 223 222 217 211 210 195 191 210 229 233 236 238 240 238 239 238 233 236 239 230 216 205 201 204 198 188 186 181 173 174 178 179 179 183 180 176 171 153 137 131 123 117 138 166 171 166 164 163 156 151 149 144
340 333 328 326 325 326 320 304 290 281 272 266 262 259 256 251 248 245 242 240 237 235 233 231 229 225 222 222 221 220 222 224 223 223 221 212 203 198 180 174 205 205 223 229 230 239 238 238 232 221 225 228 215 205 201 200 193 181 178 177 173 174 175 174 175 175 172 166 155 140 119 114 122 122 118 116 134 154 164 162 162 157 152 150 146
344 340 333 327 320 319 319 315 309 298 284 272 263 259 256 251 248 245 242 240 238 236 235 232 230 228 224 222 222 221 222 222 222 222 220 216 213 207 192 175 196 206 209 221 225 234 235 237 227 214 214 216 207 201 200 195 183 174 176 175 170 173 176 172 171 168 162 156 143 124 107 102 109 113 115 123 137 154 163 162 163 158 153 151 146
342 344 341 332 322 317 315 312 311 308 297 283 270 260 256 252 248 245 242 239 236 235 235 232 230 228 226 224 223 223 223 223 223 222 222 222 222 216 205 193 191 198 207 214 224 240 237 233 227 214 211 212 206 199 193 185 180 176 177 176 172 171 174 171 168 164 159 151 137 121 106 96 97 107 111 115 139 160 165 163 163 159 154 152 148
336 339 342 337 325 317 315 311 307 306 302 294 283 269 258 253 249 246 242 239 235 234 233 231 230 229 227 225 224 224 224 223 223 224 223 224 223 219 214 208 201 188 185 213 218 225 230 227 222 212 211 215 207 193 187 183 181 180 178 178 175 170 170 171 169 164 159 151 138 126 115 100 93 100 106 107 130 155 165 163 163 160 155 154 153
331 331 335 338 332 321 314 312 308 303 300 297 291 279 264 252 248 246 243 239 235 234 233 231 230 229 227 225 224 225 224 222 223 224 224 224 222 219 219 216 212 202 181 191 216 214 216 219 218 210 206 209 201 188 185 183 182 184 182 180 176 170 168 172 172 166 161 155 148 139 127 111 98 96 100 109 128 144 155 158 161 159 155 155 154
328 326 328 332 333 327 318 313 308 303 299 296 292 285 271 256 247 243 241 238 235 233 232 230 229 228 226 225 224 224 222 220 221 222 222 223 223 219 217 216 214 211 200 185 205 218 212 212 213 209 206 202 191 182 183 184 185 186 183 180 175 170 169 173 174 170 166 164 160 153 139 123 111 103 101 109 123 133 143 153 157 158 157 156 147
326 323 322 324 328 327 321 314 308 302 299 295 291 287 275 260 249 244 241 237 234 232 231 229 227 226 225 224 224 223 220 217 217 219 219 221 222 219 216 214 213 215 208 195 189 212 210 212 210 205 206 201 185 180 183 185 187 186 182 180 176 171 172 176 176 174 173 173 171 164 151 137 126 117 109 108 116 128 143 153 157 158 158 154 144
323 321 318 318 320 321 320 314 307 301 297 293 290 287 277 262 250 245 242 236 233 231 228 226 225 224 224 223 223 223 220 217 216 216 216 218 219 217 214 211 210 213 209 200 195 192 201 208 208 202 204 199 185 183 185 183 184 186 181 179 178 175 175 177 177 179 180 180 180 176 168 156 143 131 126 122 123 130 144 156 160 161 160 155 147
319 318 316 315 314 315 316 314 309 301 296 292 288 285 280 267 253 245 240 235 234 232 226 222 220 220 221 221 222 222 220 218 216 215 214 215 215 214 211 209 209 211 210 204 197 185 181 195 200 197 200 197 187 186 189 185 182 184 181 179 180 180 180 181 180 182 184 185 188 189 185 175 162 154 151 148 143 139 146 160 165 168 167 159 150
314 314 314 312 310 311 311 312 309 302 295 292 288 284 280 273 260 246 238 234 234 232 229 225 219 217 218 220 221 220 218 217 217 216 214 211 212 212 209 207 207 208 209 208 201 190 180 185 193 191 191 193 190 189 193 191 184 182 180 181 183 183 184 186 186 186 185 187 193 197 197 190 179 175 174 173 172 163 160 169 171 175 177 168 161
308 310 311 309 307 307 307 307 307 301 294 290 288 284 279 276 269 254 241 234 231 229 231 232 224 217 216 218 219 218 215 214 215 215 213 209 208 209 206 205 205 205 206 208 206 199 189 184 189 191 189 191 193 192 192 190 187 185 182 182 185 187 188 190 191 191 189 190 197 202 204 202 195 193 190 188 188 183 184 183 176 178 183 178 172
303 306 307 307 305 304 303 302 302 299 293 287 284 283 279 277 275 265 247 235 231 229 229 231 227 219 215 216 217 216 213 214 215 214 212 208 206 205 204 204 204 203 203 205 205 203 197 189 187 192 192 190 190 192 192 187 182 181 182 184 187 189 191 194 195 197 196 195 200 204 207 208 206 207 204 199 196 192 197 190 178 179 184 183 178
298 300 302 303 303 301 300 299 297 295 292 285 281 281 280 277 275 269 254 238 231 229 227 227 226 221 216 215 216 214 213 213 214 212 210 208 204 203 203 203 203 201 199 199 199 199 199 193 186 189 193 191 186 187 192 190 180 176 177 182 189 193 196 197 198 201 201 201 205 207 209 211 213 217 217 211 205 199 203 192 178 181 186 185 180
292 294 296 298 300 299 297 295 293 291 288 283 278 277 278 277 274 269 257 240 230 227 225 225 224 222 219 217 216 215 214 213 212 209 206 205 205 203 202 202 202 202 198 195 194 194 193 188 185 188 190 192 187 184 189 191 185 180 177 176 184 196 200 200 202 204 205 206 207 209 210 211 215 223 224 220 213 207 211 198 182 183 186 186 183
286 290 294 297 298 297 294 292 291 289 284 279 276 275 275 275 273 269 259 242 230 226 224 224 223 221 219 217 216 215 215 214 213 209 205 205 204 202 201 201 201 201 199 193 190 191 189 185 185 187 187 187 184 180 182 184 181 180 181 179 182 193 199 202 206 209 209 210 210 211 215 214 216 223 227 226 220 214 219 210 191 185 183 183 186
283 287 291 294 294 293 291 289 289 286 280 274 271 270 270 271 272 270 262 246 231 225 224 223 222 220 218 216 215 216 217 216 215 212 209 207 205 201 199 200 199 199 197 192 188 188 187 186 184 184 185 186 180 174 175 180 182 183 185 183 184 191 197 202 209 213 213 215 215 216 218 217 218 225 228 229 226 220 224 218 200 186 178 182 191
280 284 288 290 289 288 287 287 286 283 277 271 267 266 266 268 269 270 268 253 234 225 223 223 222 220 217 215 217 218 217 216 216 215 212 210 209 206 203 200 197 196 193 190 188 186 184 185 183 180 183 189 185 176 176 184 187 184 182 182 185 190 193 199 212 218 216 216 218 220 220 219 220 225 229 232 229 222 223 219 207 190 178 184 194
276 280 284 284 284 284 283 283 283 280 274 268 265 264 267 268 268 268 269 257 238 226 223 221 220 220 215 212 214 215 214 214 217 217 215 212 211 211 209 205 201 198 194 189 187 185 184 184 183 181 184 189 188 182 181 184 185 184 183 183 183 186 187 190 204 215 215 212 214 219 221 219 221 224 226 230 230 225 224 218 209 192 180 187 195
275 278 279 279 281 282 280 279 278 276 273 268 264 265 267 269 268 267 268 259 240 226 221 220 218 217 213 209 209 209 210 213 216 216 215 214 214 214 213 210 206 203 200 194 189 185 184 184 182 184 187 188 187 184 183 183 183 184 185 184 185 188 189 193 197 203 208 207 208 214 219 219 220 223 224 227 229 230 230 215 204 191 183 190 193
274 276 276 276 278 279 277 275 274 273 270 267 264 263 266 268 267 266 266 260 243 226 220 219 217 214 212 208 205 206 208 211 213 214 213 213 214 215 214 211 208 206 204 201 196 191 188 186 184 187 190 189 186 186 187 186 183 183 182 183 188 191 192 197 201 201 201 202 203 208 215 217 218 221 222 222 223 229 235 227 197 190 189 191 187
273 273 274 274 275 276 274 271 271 270 267 264 261 261 263 265 266 266 266 263 251 232 220 219 217 214 212 207 202 202 205 208 210 211 210 210 210 210 209 208 207 206 205 204 202 198 194 191 190 193 195 194 192 191 191 191 188 185 184 185 189 192 195 201 205 203 200 201 202 202 206 214 216 218 221 219 217 221 229 237 204 192 191 188 181
271 272 273 272 272 273 272 268 266 265 263 261 258 259 261 263 264 263 265 266 259 242 225 219 217 214 211 206 201 201 203 204 207 207 206 206 206 204 204 206 207 206 205 206 204 200 199 197 197 198 199 198 198 195 192 193 194 192 192 195 195 193 193 197 202 204 205 204 203 200 200 209 212 213 216 218 216 214 217 223 212 193 190 186 182
271 271 270 270 270 270 269 264 260 260 260 258 256 257 261 263 261 259 259 260 257 246 231 221 215 212 210 207 202 200 201 204 206 206 205 204 203 200 201 204 206 206 206 207 206 204 203 202 202 202 201 200 200 198 197 196 195 193 193 193 191 185 183 187 195 201 205 204 203 202 200 203 207 209 212 216 215 212 212 212 206 194 191 189 187
270 269 267 268 268 266 264 258 253 254 256 256 254 256 260 261 256 253 252 250 248 244 231 217 210 208 208 208 204 201 201 203 205 206 206 203 199 197 198 201 202 203 205 206 207 207 207 204 203 203 204 204 203 203 203 201 197 192 185 179 180 180 179 183 190 196 201 203 203 202 201 199 201 201 204 210 213 212 210 209 206 197 192 193 193
268 268 267 266 266 263 259 253 250 250 253 255 254 255 258 258 252 249 247 242 241 240 229 214 206 205 205 207 205 202 201 202 202 203 204 202 197 195 195 196 198 199 201 202 203 202 202 202 202 202 204 206 205 205 206 203 200 195 188 185 187 185 180 182 185 185 195 205 205 200 197 196 198 195 193 198 211 215 211 207 206 200 194 195 197
267 267 265 263 262 261 256 250 249 248 250 253 252 252 254 252 247 246 245 239 236 235 224 209 202 203 204 205 205 203 201 201 200 200 201 200 197 194 194 193 193 195 198 199 198 195 193 194 196 197 198 200 202 204 204 204 202 199 197 196 194 188 183 185 181 170 175 209 207 199 192 193 197 196 189 182 197 221 215 210 207 204 200 200 200